Lid_Strength_Index
3 2 3 2 2 2 3 3 3 2 2 2 1 1 1 1 1 2 2 1 2 1 1 1 2 1 2 2 2 2 3 3 5 3 4 3 3 3 3 3 2 2 2
3 3 2 2 2 2 3 2 2 2 1 1 1 1 1 1 1 2 2 2 2 2 2 2 2 1 2 2 2 3 2 2 3 4 4 4 4 4 3 3 2 1 2
4 4 3 2 3 3 3 2 2 2 2 1 1 1 1 1 1 1 1 1 1 2 1 2 2 2 2 2 2 2 2 2 2 3 4 4 4 4 4 4 4 3 2
3 3 3 2 2 3 3 3 3 2 2 2 1 1 1 1 2 1 1 2 2 1 1 1 1 2 2 2 2 2 2 2 3 4 4 5 5 4 4 5 5 4 3
5 4 3 2 2 2 2 2 3 3 2 1 1 2 2 2 1 2 2 2 3 2 1 1 1 1 2 2 2 2 2 3 3 4 5 6 6 4 4 5 5 5 4
4 4 4 3 3 3 3 3 3 3 2 2 2 2 2 1 4 4 2 2 2 2 2 2 2 3 2 6 6 5 2 2 4 3 4 6 6 5 5 5 6 6 6
4 4 4 4 4 4 3 4 4 4 4 3 2 2 2 3 5 5 4 3 3 3 3 3 3 1 3 1 5 6 7 8 6 4 4 4 5 5 5 6 6 6 5
5 4 4 4 4 4 4 4 4 4 4 4 3 3 3 3 5 6 5 3 4 3 3 2 2 2 2 2 2 4 3 4 4 4 3 3 3 4 3 4 4 5 4
5 5 4 4 4 4 4 3 3 4 4 4 3 4 4 3 6 6 6 4 4 5 3 3 4 3 5 9 2 3 4 5 10 8 8 9 10 9 6 4 5 4 4
5 5 4 4 4 4 4 4 3 3 3 2 2 2 3 3 7 7 6 4 5 5 5 4 6 6 8 9 3 2 5 6 6 7 6 9 8 8 8 4 3 3 4
5 5 5 4 4 4 4 4 4 3 3 3 3 2 2 3 4 7 7 5 5 5 5 4 4 8 9 11 10 3 4 5 6 5 6 6 5 3 3 3 3 4 5
6 6 5 5 5 4 5 4 3 3 3 3 3 4 3 3 5 7 8 7 6 5 5 4 4 9 10 13 11 10 11 8 5 6 6 6 5 4 3 3 4 4 3
7 7 7 6 6 6 6 5 5 4 5 5 4 5 5 4 4 6 8 8 8 6 5 5 8 10 11 12 11 10 10 4 5 5 6 5 5 4 4 3 3 3 3
8 8 8 8 8 7 7 6 7 6 6 6 6 5 5 5 5 5 5 6 8 7 6 5 6 7 9 8 8 8 4 4 4 5 6 5 4 4 4 4 4 2 3
9 9 9 8 8 8 7 7 7 6 7 7 7 6 5 5 5 5 5 4 5 4 4 2 3 5 6 5 6 4 4 4 5 6 5 4 5 5 4 4 4 3 5
9 9 9 7 6 6 6 6 8 8 8 9 9 7 5 7 9 8 8 8 8 9 4 3 3 3 4 4 4 4 4 6 5 5 4 4 4 5 5 3 3 4 5
8 8 7 6 4 5 5 6 7 7 8 9 9 10 9 9 10 9 9 9 10 10 4 3 3 3 3 3 3 4 5 5 4 3 3 3 3 3 5 3 3 3 4
10 10 8 7 6 6 6 6 6 6 8 8 10 9 11 11 10 10 10 10 6 7 5 3 3 4 4 4 4 5 4 4 3 4 3 2 3 4 4 4 3 4 4
11 10 7 5 5 6 6 7 6 6 7 8 8 10 11 11 11 11 11 5 6 7 3 3 4 3 4 4 4 4 3 3 4 5 5 4 2 3 4 3 3 8 7
11 10 9 4 4 5 6 7 7 7 8 8 8 7 9 8 7 6 7 8 5 3 3 3 3 3 4 4 4 3 3 5 5 5 5 4 3 4 5 4 3 4 4
10 8 9 3 4 4 6 7 7 7 7 7 6 6 9 6 8 7 7 6 3 3 3 3 4 4 4 3 2 3 3 4 4 4 4 4 3 6 6 4 3 4 4
10 4 3 4 4 4 4 3 4 4 5 6 6 9 13 7 5 4 3 3 3 3 3 4 4 3 2 2 3 3 3 4 4 4 2 3 5 5 4 3 2 3 5
9 3 4 4 3 7 4 4 4 5 5 5 5 6 4 4 5 5 5 4 4 4 4 4 3 4 4 4 3 3 3 4 4 3 3 4 5 4 3 3 3 3 4
3 3 4 4 5 5 5 6 7 8 6 6 6 6 6 6 7 8 8 7 7 7 6 6 5 5 5 5 4 4 4 4 3 3 2 2 3 4 3 3 4 5 7
3 3 4 5 5 6 6 7 7 8 8 9 9 9 9 10 10 10 9 9 9 9 9 8 8 7 6 5 5 6 11 12 5 8 2 3 3 4 4 5 6 7 7
3 4 4 5 7 8 8 9 10 10 11 11 11 11 11 11 11 11 11 11 11 11 11 11 11 10 9 9 10 13 14 13 11 12 6 6 6 6 7 9 11 12 12